STARLINK-1931

Last updated on Tue Nov 24 2020 00:02:03 GMT+0000 (Coordinated Universal Time)

1 46790U 20074BD 20328.58334491 -.00198742 00000-0 -22110-2 0 9992 2 46790 53.0545 13.4196 0001354 52.5921 15.4947 15.62835344 1856

Satellite not in orbit